ONEWEB-0314 (49100 NORAD) Tracking and Keplerian Element Data

This shows tracking and keplerian element data for the satellite.

Feedback or suggestion? Click here.




ElementValue
Catalog49100
NameONEWEB-0314
Epoch Orbit351
Epoch Day300.58334491
Epoch Year2021
RAAN344.3866
Inclination87.5358
Eccentricity0.0023513
Argument of Perigee70.0152
Mean Anonmoly103.0326
Mean Motion14.29312113
Decay Rate-0.01369058
L11 49100U 21075AB 21300.58334491 -.01369058 00000-0 -57869+0 0 9990
L22 49100 87.5358 344.3866 0023513 70.0152 103.0326 14.29312113 3516

Live tracking and technical data element details for ONEWEB-0314 (NORAD 49100). ONEWEB-0314 can be tracked NOW for your location showing map with azimuth and elevation plus other details from your city location.

Track the satellite on the map from your city or location and see movement details for azimuth, elevation, latitude, longitude, range, height, and movement on the map or in text.







IsCatalogInMostPopularTable: catalog: 49100, numindb: 14
Update: records affected: 1



GetName: 49100 ONEWEB-0314

Hit Count: updated at: Thu, 28 Oct 2021 11:58:25 GMT